• In Romania
  • List of Countries
  • For 7 days
  • Water Temperature
  • Satellite Maps
  • Weather Map
  • Weather Widgets
  • user-avatar
    Login

    Hourly Weather San Fernando de Apure

    Today, 25 May, Friday

    Time Temperature Precipitation Wind Pressure Humidity
    00:00 +27°C° 2.6 mm 1 mps 755 mmHg 88%
    01:00 +27°C° 2.6 mm 1 mps 755 mmHg 90%
    02:00 +27°C° 2.6 mm 1 mps 755 mmHg 91%
    03:00 +27°C° 3.9 mm 1 mps 755 mmHg 91%
    04:00 +27°C° 3.9 mm 1 mps 755 mmHg 91%
    05:00 +27°C° 3.9 mm 1 mps 755 mmHg 91%
    06:00 +27°C° 2.2 mm 1 mps 755 mmHg 91%
    07:00 +27°C° 2.2 mm 1 mps 756 mmHg 92%
    08:00 +27°C° 2.2 mm 1 mps 756 mmHg 92%
    09:00 +27°C° 2 mm 1 mps 756 mmHg 91%
    10:00 +27°C° 2 mm 1 mps 756 mmHg 90%
    11:00 +28°C° 2 mm 2 mps 757 mmHg 89%
    12:00 +28°C° 1.8 mm 1 mps 756 mmHg 88%
    13:00 +28°C° 1.8 mm 1 mps 756 mmHg 88%
    14:00 +28°C° 1.8 mm 1 mps 755 mmHg 87%
    15:00 +28°C° 0.7 mm 1 mps 755 mmHg 88%
    16:00 +28°C° 0.7 mm 1 mps 754 mmHg 88%
    17:00 +28°C° 0.7 mm 1 mps 754 mmHg 89%
    18:00 +27°C° 0.1 mm 1 mps 754 mmHg 91%
    19:00 +25°C° 0.1 mm 0 mps 754 mmHg 93%
    20:00 +24°C° 0.1 mm 0 mps 754 mmHg 95%
    21:00 +24°C° 0.1 mm 0 mps 755 mmHg 95%
    22:00 +24°C° 0.1 mm 0 mps 755 mmHg 96%
    23:00 +26°C° 0.1 mm 1 mps 755 mmHg 96%

    Tomorrow, 26 May, Saturday

    Time Temperature Precipitation Wind Pressure Humidity
    00:00 +26°C° 0.3 mm 1 mps 755 mmHg 96%
    01:00 +25°C° 0.3 mm 1 mps 755 mmHg 96%
    02:00 +25°C° 0.3 mm 1 mps 754 mmHg 97%
    03:00 +25°C° 0.6 mm 1 mps 754 mmHg 97%
    04:00 +25°C° 0.6 mm 1 mps 754 mmHg 97%
    05:00 +25°C° 0.6 mm 1 mps 754 mmHg 97%
    06:00 +25°C° 0.6 mm 1 mps 755 mmHg 95%
    07:00 +26°C° 0.6 mm 1 mps 755 mmHg 94%
    08:00 +26°C° 0.6 mm 1 mps 756 mmHg 92%
    09:00 +28°C° 1.8 mm 1 mps 755 mmHg 88%
    10:00 +29°C° 1.8 mm 1 mps 755 mmHg 83%
    11:00 +30°C° 1.8 mm 1 mps 755 mmHg 79%
    12:00 +31°C° 0.9 mm 1 mps 755 mmHg 76%
    13:00 +32°C° 0.9 mm 1 mps 754 mmHg 72%
    14:00 +32°C° 0.9 mm 1 mps 753 mmHg 69%
    15:00 +32°C° 0.6 mm 1 mps 753 mmHg 71%
    16:00 +32°C° 0.6 mm 1 mps 752 mmHg 72%
    17:00 +32°C° 0.6 mm 1 mps 751 mmHg 74%
    18:00 +30°C° 1.2 mm 1 mps 752 mmHg 79%
    19:00 +29°C° 1.2 mm 1 mps 752 mmHg 84%
    20:00 +28°C° 1.2 mm 1 mps 753 mmHg 89%
    21:00 +27°C° 0.1 mm 1 mps 753 mmHg 90%
    22:00 +27°C° 0.1 mm 1 mps 754 mmHg 91%
    23:00 +27°C° 0.1 mm 1 mps 754 mmHg 92%

    Day after tomorrow, 27 May, Sunday

    Time Temperature Precipitation Wind Pressure Humidity
    00:00 +27°C° 2.1 mm 1 mps 754 mmHg 92%
    01:00 +26°C° 2.1 mm 1 mps 754 mmHg 92%
    02:00 +24°C° 2.1 mm 0 mps 753 mmHg 92%
    03:00 +26°C° 2 mm 1 mps 754 mmHg 92%
    04:00 +26°C° 2 mm 1 mps 754 mmHg 92%
    05:00 +26°C° 2 mm 1 mps 754 mmHg 92%
    06:00 +26°C° 1.3 mm 1 mps 754 mmHg 92%
    07:00 +27°C° 1.3 mm 1 mps 755 mmHg 92%
    08:00 +27°C° 1.3 mm 1 mps 755 mmHg 92%
    09:00 +28°C° 1.3 mm 2 mps 755 mmHg 89%
    10:00 +29°C° 1.3 mm 2 mps 755 mmHg 85%
    11:00 +30°C° 1.3 mm 3 mps 756 mmHg 82%
    12:00 +30°C° 0.9 mm 2 mps 755 mmHg 79%
    13:00 +31°C° 0.9 mm 2 mps 754 mmHg 76%
    14:00 +32°C° 0.9 mm 2 mps 753 mmHg 73%
    15:00 +32°C° 1.1 mm 1 mps 753 mmHg 74%
    16:00 +32°C° 1.1 mm 1 mps 752 mmHg 75%
    17:00 +32°C° 1.1 mm 1 mps 752 mmHg 76%
    18:00 +30°C° 1 mm 1 mps 752 mmHg 80%
    19:00 +29°C° 1 mm 1 mps 753 mmHg 84%
    20:00 +28°C° 1 mm 1 mps 753 mmHg 88%
    21:00 +27°C° 0.2 mm 1 mps 754 mmHg 89%
    22:00 +27°C° 0.2 mm 1 mps 754 mmHg 90%
    23:00 +27°C° 0.2 mm 1 mps 755 mmHg 90%

    28 May, Monday

    Time Temperature Precipitation Wind Pressure Humidity
    00:00 +27°C° 1.6 mm 1 mps 754 mmHg 91%
    01:00 +27°C° 1.6 mm 1 mps 754 mmHg 92%
    02:00 +26°C° 1.6 mm 1 mps 754 mmHg 92%
    03:00 +26°C° 1 mm 1 mps 754 mmHg 92%
    04:00 +26°C° 1 mm 1 mps 754 mmHg 92%
    05:00 +26°C° 1 mm 1 mps 754 mmHg 92%
    06:00 +26°C° 0 mm 1 mps 755 mmHg 92%
    07:00 +27°C° 0 mm 1 mps 755 mmHg 91%
    08:00 +27°C° 0 mm 2 mps 755 mmHg 91%
    09:00 +28°C° 0 mm 2 mps 756 mmHg 84%
    10:00 +30°C° 0 mm 3 mps 756 mmHg 78%
    11:00 +32°C° 0 mm 4 mps 756 mmHg 72%
    12:00 +32°C° 0.8 mm 4 mps 755 mmHg 72%
    13:00 +33°C° 0.8 mm 3 mps 754 mmHg 72%
    14:00 +33°C° 0.8 mm 3 mps 753 mmHg 72%
    15:00 +33°C° 1 mm 3 mps 753 mmHg 74%
    16:00 +32°C° 1 mm 2 mps 752 mmHg 75%
    17:00 +32°C° 1 mm 2 mps 752 mmHg 76%
    18:00 +31°C° 0.9 mm 1 mps 752 mmHg 79%
    19:00 +29°C° 0.9 mm 1 mps 753 mmHg 81%
    20:00 +28°C° 0.9 mm 1 mps 753 mmHg 83%
    21:00 +28°C° 0.3 mm 1 mps 754 mmHg 85%
    22:00 +27°C° 0.3 mm 1 mps 754 mmHg 86%
    23:00 +27°C° 0.3 mm 2 mps 755 mmHg 88%

    29 May, Tuesday

    Time Temperature Precipitation Wind Pressure Humidity
    00:00 +27°C° 2.3 mm 2 mps 755 mmHg 89%
    01:00 +27°C° 2.3 mm 1 mps 754 mmHg 90%
    02:00 +26°C° 2.3 mm 1 mps 754 mmHg 91%
    03:00 +26°C° 1.5 mm 1 mps 754 mmHg 92%
    04:00 +26°C° 1.5 mm 1 mps 754 mmHg 92%
    05:00 +26°C° 1.5 mm 1 mps 754 mmHg 93%
    06:00 +26°C° 1.2 mm 1 mps 755 mmHg 93%
    07:00 +26°C° 1.2 mm 1 mps 755 mmHg 92%
    08:00 +27°C° 1.2 mm 1 mps 756 mmHg 92%
    09:00 +27°C° 0.7 mm 2 mps 756 mmHg 89%
    10:00 +28°C° 0.7 mm 2 mps 756 mmHg 86%
    11:00 +29°C° 0.7 mm 3 mps 756 mmHg 83%
    12:00 +29°C° 0.7 mm 3 mps 755 mmHg 81%
    13:00 +30°C° 0.7 mm 2 mps 755 mmHg 80%
    14:00 +30°C° 0.7 mm 2 mps 754 mmHg 78%
    15:00 +30°C° 0.6 mm 2 mps 754 mmHg 80%
    16:00 +30°C° 0.6 mm 1 mps 753 mmHg 82%
    17:00 +29°C° 0.6 mm 1 mps 753 mmHg 84%
    18:00 +28°C° 0.1 mm 1 mps 753 mmHg 87%
    19:00 +27°C° 0.1 mm 1 mps 754 mmHg 90%
    20:00 +26°C° 0.1 mm 1 mps 754 mmHg 93%
    21:00 +26°C° 0.1 mm 1 mps 755 mmHg 93%
    22:00 +26°C° 0.1 mm 1 mps 755 mmHg 94%
    23:00 +26°C° 0.1 mm 1 mps 755 mmHg 95%

    30 May, Wednesday

    Time Temperature Precipitation Wind Pressure Humidity
    00:00 +26°C° 0.2 mm 1 mps 755 mmHg 96%
    01:00 +25°C° 0.2 mm 1 mps 755 mmHg 96%
    02:00 +25°C° 0.2 mm 1 mps 754 mmHg 96%
    03:00 +25°C° 0.1 mm 1 mps 754 mmHg 96%
    04:00 +25°C° 0.1 mm 1 mps 754 mmHg 96%
    05:00 +25°C° 0.1 mm 1 mps 754 mmHg 96%
    06:00 +25°C° 0.1 mm 1 mps 755 mmHg 95%
    07:00 +24°C° 0.1 mm 0 mps 755 mmHg 94%
    08:00 +24°C° 0.1 mm 0 mps 756 mmHg 92%
    09:00 +27°C° 0.1 mm 1 mps 756 mmHg 86%
    10:00 +28°C° 0.1 mm 2 mps 756 mmHg 80%
    11:00 +30°C° 0.1 mm 2 mps 756 mmHg 74%
    12:00 +30°C° 0 mm 2 mps 755 mmHg 72%
    13:00 +31°C° 0 mm 2 mps 754 mmHg 69%
    14:00 +32°C° 0 mm 2 mps 753 mmHg 66%
    15:00 +32°C° 0 mm 2 mps 753 mmHg 67%
    16:00 +32°C° 0 mm 1 mps 752 mmHg 69%
    17:00 +32°C° 0 mm 1 mps 752 mmHg 71%
    18:00 +30°C° 0 mm 1 mps 752 mmHg 73%
    19:00 +29°C° 0 mm 1 mps 752 mmHg 76%
    20:00 +28°C° 0 mm 1 mps 753 mmHg 79%
    21:00 +27°C° 0.1 mm 1 mps 753 mmHg 80%
    22:00 +27°C° 0.1 mm 1 mps 754 mmHg 82%
    23:00 +27°C° 0.1 mm 1 mps 754 mmHg 83%
    Show more